Weather History for Walnut Ridge, AR

Change the Weather History Date:

Saturday, September 6, 2014

  Actual Average Record
Temperature  
Mean Temperature 74 °F -  
Max Temperature 82 °F 83 °F 95 °F (1998)
Min Temperature 66 °F 63 °F 51 °F (2011)
Cooling Degree Days 9    
Growing Degree Days 24 (Base 50)    
Moisture  
Dew Point 35 °F    
Average Humidity 25    
Maximum Humidity 43    
Minimum Humidity 15    
Precipitation  
Precipitation 0.05 in - - ()
Sea Level Pressure  
Sea Level Pressure 30.08 in    
Wind  
Wind Speed 9 mph (North)    
Max Wind Speed 16 mph    
Max Gust Speed 20 mph    
Visibility 10 miles    
Events      
Averages and records for this station are not official NWS values.
T = Trace of Precipitation, MM = Missing Value Source: NWS Daily Summary

Daily Weather History Graph

Daily Weather History Graph

Search for Another Location

Airport:

Trip Planner

Search our weather history database for the weather conditions in past years. The results will help you decide how hot, cold, wet, or windy it might be!

Date:

Astronomy

Sep. 06, 2014 Rise Set
Actual Time 6:39 AM CDT 7:24 PM CDT
Civil Twilight 6:13 AM CDT 7:50 PM CDT
Nautical Twilight 5:42 AM CDT 8:20 PM CDT
Astronomical Twilight 5:10 AM CDT 8:52 PM CDT
Moon 5:37 PM CDT (9/6) 3:45 AM CDT (9/6)
Length of Visible Light 13h 36m
Length of Day
12h 44m
Waxing Gibbous, 92% of the Moon is Illuminated
Sep 6
Waxing Gibbous
Sep 8
Full
Sep 15
Last Quarter
Sep 24
New
Oct 1
First Quarter

Hourly Weather History & Observations

Time (CDT) Temp. Dew Point Humidity Pressure Visibility Wind Dir Wind Speed Gust Speed Precip Events Conditions
12:15 AM 78.8 °F 44.6 °F 30% 30.03 in 10.0 mi West 6.9 mph - N/A   Clear
12:35 AM 78.8 °F 42.8 °F 28% 30.03 in 10.0 mi WSW 4.6 mph - N/A   Clear
1:15 AM 78.8 °F 41.0 °F 26% 30.02 in 9.0 mi WSW 3.5 mph - N/A   Clear
1:35 AM 77.0 °F 41.0 °F 28% 30.02 in 10.0 mi SW 3.5 mph - N/A   Clear
1:55 AM 75.2 °F 41.0 °F 29% 30.03 in 10.0 mi NW 9.2 mph 17.3 mph N/A   Clear
2:15 AM 77.0 °F 41.0 °F 28% 30.03 in 10.0 mi NW 6.9 mph - N/A   Partly Cloudy
2:35 AM 77.0 °F 39.2 °F 26% 30.02 in 10.0 mi North 5.8 mph - N/A   Clear
2:55 AM 75.2 °F 39.2 °F 27% 30.03 in 10.0 mi North 9.2 mph - N/A   Clear
3:15 AM 75.2 °F 39.2 °F 27% 30.02 in 10.0 mi NE 10.4 mph - N/A   Clear
3:35 AM 75.2 °F 37.4 °F 25% 30.02 in 10.0 mi NE 8.1 mph - N/A   Clear
3:55 AM 73.4 °F 37.4 °F 27% 30.02 in 10.0 mi NE 9.2 mph - N/A   Clear
4:15 AM 73.4 °F 37.4 °F 27% 30.02 in 10.0 mi NE 8.1 mph - N/A   Clear
4:35 AM 73.4 °F 37.4 °F 27% 30.02 in 10.0 mi ENE 5.8 mph - N/A   Clear
4:55 AM 73.4 °F 37.4 °F 27% 30.02 in 10.0 mi NE 6.9 mph - N/A   Clear
5:35 AM 71.6 °F 37.4 °F 29% 30.04 in 10.0 mi NW 9.2 mph - N/A   Clear
5:55 AM 71.6 °F 35.6 °F 27% 30.05 in 10.0 mi NNW 9.2 mph - N/A   Clear
6:15 AM 71.6 °F 35.6 °F 27% 30.06 in 10.0 mi NNW 9.2 mph - N/A   Clear
6:35 AM 71.6 °F 33.8 °F 25% 30.06 in 10.0 mi North 9.2 mph - N/A   Clear
6:55 AM 71.6 °F 33.8 °F 25% 30.07 in 10.0 mi North 8.1 mph - N/A   Clear
7:15 AM 71.6 °F 33.8 °F 25% 30.08 in 10.0 mi North 9.2 mph - N/A   Clear
7:35 AM 73.4 °F 33.8 °F 23% 30.09 in 10.0 mi North 11.5 mph - N/A   Mostly Cloudy
7:55 AM 73.4 °F 33.8 °F 23% 30.09 in 10.0 mi North 9.2 mph - N/A   Mostly Cloudy
8:15 AM 73.4 °F 33.8 °F 23% 30.09 in 10.0 mi North 9.2 mph - N/A   Partly Cloudy
8:35 AM 75.2 °F 37.4 °F 25% 30.10 in 10.0 mi North 15.0 mph 19.6 mph N/A   Partly Cloudy
9:15 AM 75.2 °F 35.6 °F 24% 30.11 in 10.0 mi North 10.4 mph - N/A   Overcast
9:35 AM 75.2 °F 35.6 °F 24% 30.10 in 10.0 mi North 11.5 mph - N/A   Overcast
9:55 AM 77.0 °F 35.6 °F 22% 30.11 in 10.0 mi North 12.7 mph - N/A   Overcast
10:15 AM 78.8 °F 37.4 °F 23% 30.11 in 10.0 mi North 12.7 mph - N/A   Partly Cloudy
10:35 AM 80.6 °F 37.4 °F 21% 30.11 in 10.0 mi North 16.1 mph - N/A   Partly Cloudy
10:55 AM 80.6 °F 37.4 °F 21% 30.10 in 10.0 mi NNE 13.8 mph - N/A   Clear
11:15 AM 80.6 °F 37.4 °F 21% 30.10 in 10.0 mi North 12.7 mph - N/A   Clear
11:35 AM 82.4 °F 37.4 °F 20% 30.11 in 10.0 mi North 12.7 mph - N/A   Partly Cloudy
11:55 AM 82.4 °F 35.6 °F 19% 30.10 in 10.0 mi North 13.8 mph - N/A   Clear
12:15 PM 80.6 °F 33.8 °F 18% 30.10 in 10.0 mi NNE 9.2 mph - N/A   Partly Cloudy
12:35 PM 82.4 °F 33.8 °F 17% 30.10 in 10.0 mi North 8.1 mph - N/A   Partly Cloudy
12:55 PM 80.6 °F 35.6 °F 20% 30.09 in 10.0 mi North 8.1 mph 17.3 mph N/A   Partly Cloudy
1:15 PM 80.6 °F 35.6 °F 20% 30.09 in 10.0 mi NNE 8.1 mph - N/A   Clear
1:35 PM 78.8 °F 35.6 °F 21% 30.09 in 10.0 mi North 10.4 mph - N/A   Partly Cloudy
1:55 PM 75.2 °F 35.6 °F 24% 30.09 in 10.0 mi North 10.4 mph - 0.05 in   Mostly Cloudy
2:15 PM 77.0 °F 35.6 °F 22% 30.08 in 10.0 mi North 12.7 mph - N/A   Partly Cloudy
2:35 PM 77.0 °F 35.6 °F 22% 30.08 in 10.0 mi North 10.4 mph - N/A   Clear
2:55 PM 78.8 °F 37.4 °F 23% 30.08 in 10.0 mi North 12.7 mph - N/A   Clear
3:15 PM 80.6 °F 37.4 °F 21% 30.07 in 10.0 mi North 13.8 mph - N/A   Clear
3:35 PM 78.8 °F 35.6 °F 21% 30.07 in 10.0 mi North 13.8 mph - N/A   Clear
3:55 PM 78.8 °F 35.6 °F 21% 30.08 in 10.0 mi North 11.5 mph - N/A   Clear
4:35 PM 77.0 °F 35.6 °F 22% 30.07 in 10.0 mi North 12.7 mph - N/A   Clear
4:55 PM 77.0 °F 33.8 °F 21% 30.07 in 10.0 mi North 10.4 mph - N/A   Clear
5:15 PM 75.2 °F 33.8 °F 22% 30.08 in 10.0 mi North 11.5 mph - N/A   Clear
5:35 PM 75.2 °F 33.8 °F 22% 30.08 in 10.0 mi North 11.5 mph - N/A   Clear
5:55 PM 75.2 °F 33.8 °F 22% 30.08 in 10.0 mi NNE 9.2 mph - N/A   Clear
6:15 PM 75.2 °F 33.8 °F 22% 30.08 in 10.0 mi NNE 9.2 mph - N/A   Clear
6:55 PM 73.4 °F 30.2 °F 20% 30.09 in 10.0 mi North 11.5 mph - N/A   Partly Cloudy
7:15 PM 71.6 °F 30.2 °F 22% 30.09 in 10.0 mi North 9.2 mph - N/A   Partly Cloudy
7:35 PM 71.6 °F 28.4 °F 20% 30.09 in 10.0 mi North 9.2 mph - N/A   Clear
7:55 PM 69.8 °F 28.4 °F 21% 30.10 in 10.0 mi North 8.1 mph - N/A   Clear
8:15 PM 69.8 °F 19.4 °F 15% 30.10 in 10.0 mi North 9.2 mph - N/A   Clear
8:35 PM 69.8 °F 21.2 °F 16% 30.11 in 10.0 mi North 8.1 mph - N/A   Clear
8:55 PM 69.8 °F 19.4 °F 15% 30.12 in 10.0 mi North 8.1 mph - N/A   Clear
9:15 PM 69.8 °F 19.4 °F 15% 30.13 in 10.0 mi North 8.1 mph - N/A   Clear
9:35 PM 69.8 °F 19.4 °F 15% 30.14 in 10.0 mi North 6.9 mph - N/A   Clear
9:55 PM 69.8 °F 46.4 °F 43% 30.13 in 10.0 mi NNE 6.9 mph - N/A   Clear
10:15 PM 68.0 °F 42.8 °F 40% 30.14 in 10.0 mi North 6.9 mph - N/A   Clear
10:55 PM 68.0 °F 42.8 °F 40% 30.14 in 10.0 mi North 4.6 mph - N/A   Clear
11:15 PM 68.0 °F 42.8 °F 40% 30.14 in 10.0 mi North 8.1 mph - N/A   Clear
11:35 PM 66.2 °F 42.8 °F 43% 30.14 in 10.0 mi North 9.2 mph - N/A   Clear
11:55 PM 66.2 °F 42.8 °F 43% 30.13 in 10.0 mi North 8.1 mph - N/A   Clear